Back to catalog

CZ-6A DEB

AliveSSO
NORAD 56634·DEBRIS·🇨🇳 China

Launched Nov 11, 2022 from Taiyuan Satellite Launch Center

Loading…

Next Passes (next 24 hours)

TLE

FreshSource: Space-Track

Epoch: Sep 13, 2026, 23:59 UTC

1 56634U 22151AFJ 26256.99932127  .00000127  00000-0  77947-4 0  9996
2 56634  98.7750 279.8995 0013359 131.6962 228.5361 14.21727991176240

Track CZ-6A DEB in real time with AllMySat

Download on the App Store